Wind_Speed
9 9 8 8 7 7 7 7 6 5 4 4 3 3 3 4 4 3 3 3 2 2 2 2 3 3 4 5 6 6 6 7 9 9 8 7 6 6 6 6 5 4 5 6 5 5 6 5 6 7 8 10 10 11 10 10 10 10 9 9 9 10 10
9 9 9 8 8 8 8 7 6 6 4 3 3 3 3 3 3 3 2 3 3 2 3 2 3 3 4 4 5 6 6 6 7 8 8 8 6 6 7 7 6 6 6 5 5 5 6 6 6 7 8 8 9 10 10 10 10 10 10 10 10 10 10
11 10 9 9 8 9 9 8 7 6 5 3 3 3 3 3 3 3 2 3 4 4 4 4 4 4 3 4 4 5 6 7 6 6 7 7 6 7 7 7 7 7 7 7 7 7 7 7 6 8 9 8 8 9 8 9 9 9 9 9 9 10 10
12 11 10 9 9 9 10 9 7 5 5 4 3 4 4 3 4 3 3 4 5 5 4 4 4 3 3 3 4 5 5 6 6 6 7 7 6 7 6 6 6 6 6 7 8 8 7 6 6 7 9 9 9 9 8 8 8 8 9 9 9 9 9
12 11 11 10 10 10 10 9 7 6 5 4 4 5 4 4 4 3 3 5 6 5 4 4 4 4 3 3 3 4 4 5 6 6 7 8 7 7 6 5 5 5 5 5 7 7 6 6 7 6 8 9 8 9 10 8 8 8 8 8 9 9 9
11 10 11 11 10 10 9 9 8 7 5 5 5 5 5 4 4 4 4 5 6 5 5 5 5 5 4 4 4 5 5 5 5 6 7 8 7 7 7 6 5 5 4 4 5 5 5 7 7 6 7 8 7 8 9 8 8 8 8 8 8 8 9
9 10 10 10 10 10 9 9 8 7 6 6 6 6 5 4 5 6 5 6 6 6 6 6 6 5 4 5 5 6 6 6 6 7 8 8 7 6 6 5 6 5 5 5 5 5 6 6 7 6 6 7 6 7 8 7 7 6 7 7 7 8 8
9 9 9 10 10 9 9 8 8 8 7 7 7 6 5 6 7 8 7 7 7 6 6 6 6 6 5 5 6 6 7 7 7 8 8 8 7 6 5 5 6 6 6 5 5 5 5 5 6 6 6 6 5 5 6 6 6 5 6 6 7 7 7
9 9 9 10 10 9 9 8 8 8 8 9 8 7 6 7 8 9 8 8 7 7 7 6 6 6 5 6 6 6 6 6 6 6 6 7 6 6 6 6 7 7 7 6 5 5 4 4 6 6 6 6 5 4 5 5 5 5 4 4 6 7 6
11 11 10 10 10 10 9 8 9 9 9 10 9 8 8 8 9 9 9 9 8 8 7 6 6 6 5 6 6 6 6 5 6 6 5 6 6 7 7 7 8 8 8 7 7 7 6 5 6 6 5 5 4 4 4 4 4 5 4 3 4 6 5
12 11 11 12 11 10 10 9 9 9 9 10 10 9 9 9 10 9 9 9 9 10 9 8 7 6 6 6 7 6 6 5 6 6 6 7 7 7 8 8 8 8 8 8 8 7 7 7 6 5 4 3 2 2 3 4 4 4 5 4 4 5 5
12 11 11 12 11 11 10 11 10 10 10 11 11 10 9 9 10 9 9 9 10 10 10 9 8 7 7 8 8 7 7 7 7 7 7 7 7 7 8 8 8 8 7 7 7 7 7 7 7 6 6 5 5 4 3 4 5 3 4 5 5 4 4
12 11 11 11 11 11 10 11 12 11 11 11 11 11 10 10 10 10 10 9 10 10 10 9 9 8 8 8 8 9 8 8 9 9 8 8 7 8 8 8 8 7 7 7 7 6 6 6 6 7 7 7 7 5 3 4 6 6 4 4 4 4 3
12 11 10 10 10 11 11 12 12 11 10 11 11 11 11 10 10 10 10 10 9 9 9 9 9 8 8 8 8 9 9 9 9 9 9 8 8 7 7 7 7 6 6 6 6 6 6 6 6 6 6 6 6 5 4 5 7 7 5 4 4 4 2
10 9 10 10 10 11 12 12 13 11 10 10 11 11 11 11 11 10 10 10 10 9 9 9 8 8 8 8 7 7 7 7 7 7 7 7 7 6 6 6 6 6 5 5 5 5 6 5 5 5 5 5 5 5 4 4 5 6 6 4 4 4 3
9 9 9 9 9 11 12 13 13 12 10 9 10 10 11 12 12 11 11 10 10 10 9 9 9 8 8 8 7 6 6 5 6 6 6 6 6 5 5 4 5 4 4 5 4 4 5 4 3 5 5 5 5 5 4 3 3 4 5 5 4 4 3
7 8 8 8 8 10 12 12 12 12 11 10 10 10 11 12 12 12 12 11 11 10 10 9 9 8 8 8 7 7 6 5 5 5 4 5 5 5 4 4 4 3 3 4 4 4 4 3 3 4 5 5 5 5 4 3 3 3 3 4 3 2 2
6 7 8 8 9 10 11 12 12 12 12 12 11 11 11 11 12 12 12 12 12 11 10 10 9 9 8 7 7 7 6 6 5 5 4 4 4 4 4 4 4 4 3 3 3 3 3 3 3 4 4 4 4 4 3 2 2 1 1 3 3 1 1
6 7 8 9 10 10 11 11 11 11 11 12 12 12 11 11 11 12 12 12 12 12 11 11 10 9 9 8 7 7 7 6 6 6 5 5 5 5 5 4 4 5 5 4 3 3 3 3 3 3 3 3 3 4 3 2 2 1 0 1 2 2 2
7 7 9 10 10 10 10 11 11 11 11 12 13 13 12 12 12 12 13 13 13 13 12 11 11 10 9 9 8 7 6 6 6 6 6 6 6 7 7 7 7 7 7 6 6 5 4 4 4 4 4 3 3 3 3 2 1 1 1 2 2 2 2
5 6 8 9 10 10 10 11 11 12 12 12 12 13 13 14 13 13 13 13 13 13 12 12 11 11 9 8 7 6 6 6 6 6 6 7 7 8 9 9 10 10 10 10 10 9 7 6 6 6 5 5 4 4 3 2 3 3 3 3 3 3 4
3 5 6 8 10 11 11 11 12 13 13 13 13 13 14 15 15 15 15 14 14 13 12 12 12 13 11 9 7 6 5 5 6 6 7 7 8 9 9 9 11 12 12 12 12 11 10 10 9 7 6 5 4 4 4 4 4 5 6 6 6 6 7
3 4 5 7 8 9 10 11 12 13 14 13 13 12 13 15 16 16 16 16 16 14 14 14 15 15 15 12 8 5 5 5 6 7 7 8 8 8 9 9 10 12 13 13 13 12 12 13 13 10 7 7 7 6 5 5 5 5 6 7 7 6 8
2 4 5 6 7 7 8 9 11 12 12 12 12 12 13 14 15 15 15 16 17 17 15 15 16 17 16 13 9 6 4 5 5 6 7 8 8 9 9 9 9 10 11 12 13 13 13 15 16 16 13 11 10 9 7 5 5 4 5 7 7 6 7
2 3 4 5 7 7 8 9 9 11 11 12 12 12 13 15 15 15 15 15 17 18 19 18 17 17 17 15 11 8 6 7 7 8 9 9 9 10 10 9 7 6 7 9 10 10 12 15 17 18 18 15 13 13 11 7 5 2 4 6 7 7 7
2 3 4 5 6 7 8 9 9 10 11 12 13 14 15 16 16 17 17 17 17 18 21 21 20 19 18 17 14 12 10 10 9 9 10 10 10 10 10 7 6 5 6 8 7 7 10 14 17 19 18 16 15 14 12 9 6 4 4 4 6 6 6
2 3 4 5 6 7 8 8 8 9 10 11 13 14 16 17 18 18 18 18 18 18 20 22 23 21 19 18 16 13 10 8 6 7 9 9 8 9 7 5 5 5 5 6 6 8 10 13 16 18 15 13 12 11 8 7 5 4 4 3 4 5 4
3 3 3 5 6 8 9 9 9 9 9 10 11 12 14 15 15 16 16 16 16 17 20 23 25 23 21 20 17 13 9 7 6 8 10 9 7 7 6 5 5 5 5 6 8 10 10 11 13 14 12 10 9 8 8 7 5 4 3 2 2 3 3
5 4 4 5 6 7 9 10 11 10 10 11 11 11 12 12 13 13 13 14 14 14 16 20 23 22 20 19 17 13 11 11 10 9 8 7 5 5 5 5 5 6 7 7 9 11 10 11 13 13 12 11 9 9 9 8 6 6 5 5 5 6 7
5 6 6 6 6 6 7 8 9 9 9 10 11 12 13 13 12 12 11 12 13 12 13 17 20 19 19 19 17 14 13 13 12 10 8 6 5 6 7 7 6 6 7 8 9 11 13 14 13 12 12 10 8 7 7 7 6 7 7 8 9 10 10
6 6 7 7 8 8 8 8 8 8 8 8 9 10 12 12 11 11 11 12 13 12 13 17 19 18 19 20 17 13 13 13 12 10 9 8 7 8 10 10 9 8 9 11 12 14 15 13 10 10 10 9 7 6 5 5 5 6 7 8 9 10 11
8 8 8 8 8 9 10 9 8 8 9 8 8 8 9 10 10 10 10 12 14 13 13 17 19 19 20 20 16 12 10 11 12 11 11 10 9 9 10 10 10 9 10 12 13 14 14 11 7 8 8 7 6 6 5 4 4 3 4 6 7 8 10
9 9 9 8 8 9 10 10 10 10 10 9 8 9 9 8 9 9 10 12 13 13 14 19 21 20 19 18 15 11 10 11 11 11 11 11 11 11 11 10 10 10 10 12 13 13 13 11 7 6 5 5 5 5 4 4 4 4 4 5 7 8 9
10 10 11 10 9 9 10 11 11 11 11 10 9 10 10 10 10 10 11 12 13 13 16 20 21 20 19 18 16 13 10 10 11 12 12 12 11 11 11 11 12 11 10 11 12 11 11 11 9 6 4 4 5 5 3 2 4 6 5 6 8 9 9
11 11 11 11 10 10 10 10 11 11 12 11 10 12 13 12 12 12 13 12 13 15 19 20 20 20 20 18 17 15 11 11 13 12 12 12 12 11 11 12 13 13 11 10 11 10 9 9 8 5 4 3 4 3 2 2 3 5 6 7 8 9 9
13 12 11 11 12 11 10 10 11 12 13 13 12 14 15 15 14 14 13 12 13 16 19 20 20 21 19 18 18 17 14 14 14 12 11 12 12 12 12 13 14 13 12 11 10 9 8 7 5 3 2 2 2 2 1 2 3 5 6 7 8 9 9
15 14 13 12 12 13 11 10 11 13 14 15 15 15 15 16 17 16 15 13 12 14 15 17 19 20 18 18 19 18 16 15 15 12 9 11 12 13 14 15 16 14 13 11 10 8 6 4 3 2 1 1 2 3 1 2 4 5 6 7 7 8 8
Wind_Direction
146 143 143 139 132 128 126 126 127 130 135 128 118 108 101 96 89 97 118 120 120 140 157 175 173 166 161 154 165 183 187 191 199 198 190 190 194 194 204 216 228 222 194 194 198 169 152 137 127 109 90 86 83 80 78 75 75 75 71 69 69 69 66
139 142 142 139 134 130 129 128 127 127 131 126 117 117 107 94 90 93 119 126 117 123 120 118 116 108 118 137 157 171 175 189 205 202 192 192 195 186 185 193 198 191 180 184 198 183 157 146 142 121 109 103 92 84 81 82 81 79 76 72 70 71 70
137 143 142 143 143 137 134 133 133 132 132 130 122 121 112 98 91 84 110 126 115 113 107 100 100 99 112 134 150 165 168 174 187 194 188 186 188 186 186 188 182 175 170 170 184 188 169 152 139 134 139 135 109 93 88 89 90 85 81 75 71 69 69
143 147 146 150 151 143 141 138 137 135 129 131 131 126 115 98 88 75 96 120 114 106 98 87 85 86 101 129 141 153 162 166 171 178 177 174 180 182 184 187 179 176 177 176 181 186 181 160 144 146 147 136 120 110 104 98 93 88 82 76 71 68 67
147 151 152 155 154 148 145 140 137 136 130 132 136 129 117 97 92 88 99 119 115 102 88 78 74 72 76 100 124 134 145 152 155 163 165 167 172 174 180 188 184 181 183 181 180 183 182 163 154 154 144 135 126 120 119 112 98 87 77 72 68 64 64
151 153 152 152 154 150 147 143 139 138 137 138 136 128 118 102 97 101 105 113 109 95 83 77 80 78 76 91 103 110 115 120 131 141 151 158 162 164 168 168 161 156 144 139 152 158 155 152 155 158 147 139 133 131 135 131 114 96 80 71 66 63 61
155 157 155 154 156 149 145 145 139 137 141 139 133 122 113 104 101 103 101 96 92 87 84 86 93 88 86 101 97 93 97 96 103 115 125 132 135 138 140 133 126 120 107 105 115 128 141 153 160 161 148 138 140 146 148 144 130 108 88 74 62 63 63
159 160 157 152 151 147 142 142 135 136 141 138 132 120 109 107 106 106 102 96 91 90 90 94 100 95 94 104 95 87 92 92 95 103 109 114 114 111 109 105 106 102 96 99 104 117 138 151 154 160 160 151 151 152 145 138 123 103 97 89 69 61 64
161 160 158 153 150 145 142 140 134 136 141 138 133 124 114 111 109 108 103 99 95 94 96 98 101 99 95 98 96 92 92 90 95 100 103 106 103 100 100 100 104 100 93 98 100 102 113 128 141 156 168 166 159 152 148 141 121 106 102 100 85 70 61
167 165 163 156 150 145 141 137 135 140 145 141 136 129 123 116 112 109 104 101 99 98 100 101 102 104 99 97 101 100 95 93 96 95 97 103 102 102 102 100 103 102 96 95 96 97 103 117 136 155 170 175 172 162 156 145 125 113 100 78 81 79 69
174 172 164 155 152 151 146 141 143 149 151 147 143 139 133 126 118 115 111 107 104 102 102 104 108 109 107 107 108 105 100 100 101 98 99 103 103 106 107 105 106 105 101 99 98 100 102 108 120 129 133 142 146 141 143 136 118 103 101 88 73 76 79
177 176 166 159 160 157 152 150 153 157 157 154 151 148 144 137 130 125 121 116 111 108 106 107 109 113 114 116 116 114 110 110 109 107 106 107 108 112 112 111 111 107 107 107 104 103 102 101 104 102 98 93 83 79 110 134 123 101 96 99 90 80 80
180 182 174 168 164 157 156 159 160 164 164 159 157 156 153 147 142 137 133 128 122 118 116 114 113 116 120 122 123 124 123 122 119 117 117 117 116 120 120 115 114 114 113 111 108 104 99 95 93 92 93 89 84 78 78 106 114 106 95 100 110 103 91
182 184 178 171 164 157 160 164 164 168 169 163 161 159 156 153 150 146 142 138 133 128 124 121 119 119 120 122 125 127 130 132 127 125 129 129 128 130 129 124 122 121 119 118 118 116 110 105 101 98 97 94 88 78 73 96 114 118 117 120 124 118 116
182 182 174 166 161 161 166 169 169 170 172 171 166 161 159 157 155 151 148 145 141 138 133 128 126 125 124 123 123 126 131 132 128 128 129 130 130 130 130 131 130 126 125 128 133 129 125 128 123 112 104 99 95 85 77 96 116 125 131 141 150 140 126
183 180 173 167 165 167 172 175 175 174 177 179 173 167 164 161 159 157 152 150 149 147 144 141 138 137 135 133 133 132 132 132 132 136 139 136 134 132 132 135 136 138 138 139 142 135 134 144 132 115 111 108 107 99 88 86 100 120 132 142 162 167 144
181 181 181 181 178 173 173 177 178 178 181 184 182 178 171 168 166 161 158 157 156 155 153 152 150 148 146 145 145 145 146 148 148 149 152 150 146 148 153 154 154 157 154 151 152 147 148 156 139 128 130 126 121 111 100 93 90 106 132 141 144 146 136
187 191 195 204 199 182 173 175 179 182 184 184 186 187 181 177 173 169 166 164 161 160 159 159 158 157 156 156 156 158 161 164 168 172 172 169 171 173 174 175 173 175 180 179 175 169 168 172 161 151 151 143 131 120 109 102 97 88 128 143 141 138 140
204 206 214 219 209 191 181 179 181 185 187 185 184 187 187 185 180 176 174 169 165 164 161 161 162 162 163 165 166 170 172 174 179 183 185 189 195 198 199 198 192 192 197 196 194 196 189 191 196 184 175 169 142 128 128 124 115 114 193 164 167 188 197
218 221 225 221 210 200 193 189 188 189 190 188 185 185 187 188 187 183 178 174 171 167 164 163 162 162 164 166 167 169 173 179 183 186 194 202 206 209 211 209 205 204 204 207 216 221 219 220 221 208 195 197 177 159 169 180 183 205 223 222 238 238 229
229 229 227 219 213 208 203 202 203 200 196 195 194 192 189 188 188 186 181 177 173 170 167 165 162 162 163 165 168 172 178 188 195 198 206 212 216 219 220 217 216 214 211 216 220 216 213 221 227 219 208 204 196 192 203 213 226 253 267 271 276 278 281
237 234 227 221 219 216 215 219 219 215 208 206 205 203 198 194 191 189 184 180 176 172 170 170 168 165 165 167 172 181 192 207 220 226 228 229 229 229 230 226 223 222 221 225 226 217 209 214 222 222 212 211 219 225 231 233 244 268 280 282 283 284 291
235 229 223 222 222 222 225 225 221 218 216 213 212 210 205 199 194 191 186 184 185 186 185 187 186 180 177 176 177 185 207 228 240 245 246 247 242 238 239 235 230 233 236 237 235 231 224 221 223 223 216 217 227 231 238 249 255 269 284 289 290 292 295
236 230 226 223 223 225 228 226 221 219 219 217 214 209 205 201 198 198 196 194 197 201 203 203 202 198 194 191 189 194 215 234 245 252 251 248 245 245 243 237 232 236 242 242 240 239 237 227 223 226 227 225 228 223 221 242 256 264 285 290 290 291 295
264 244 238 235 234 235 234 231 229 228 227 225 221 216 213 210 208 210 211 210 212 218 220 219 216 212 208 207 210 215 223 236 249 259 256 251 252 254 248 235 222 218 228 240 241 236 235 226 218 223 229 229 227 219 212 220 233 254 297 297 290 289 292
287 266 251 243 240 237 235 232 231 232 232 232 232 229 226 223 223 224 224 223 225 227 226 225 223 218 214 216 222 225 226 233 245 255 256 254 253 252 247 234 219 205 213 236 233 212 219 220 213 217 224 224 221 216 212 216 223 243 285 294 289 289 292
306 289 274 260 247 239 235 229 226 230 233 235 236 235 233 231 231 231 230 231 232 228 227 229 225 219 221 228 230 223 215 218 236 251 252 249 243 242 239 230 226 212 200 214 202 183 199 214 212 211 211 209 210 210 209 215 225 250 276 275 281 294 303
325 304 288 272 258 247 240 231 224 225 230 234 235 234 235 233 232 231 229 231 233 227 225 229 227 223 228 233 226 207 188 189 215 240 242 234 225 227 225 216 218 201 175 178 184 183 194 203 196 189 181 177 181 184 192 208 218 229 233 223 258 287 285
321 304 291 280 267 254 245 237 233 229 229 233 232 230 231 231 229 228 225 225 226 223 223 228 227 223 221 216 204 188 180 189 204 218 220 208 192 189 186 183 185 173 165 180 193 190 183 173 167 167 167 164 164 178 202 221 230 231 235 241 255 263 262
317 301 289 280 272 263 251 244 239 232 230 233 231 227 229 229 227 224 221 217 214 212 216 217 213 209 201 191 182 176 176 181 187 190 184 169 156 160 164 158 151 153 163 175 178 169 160 157 160 164 166 164 162 175 208 231 241 245 253 263 268 270 270
316 305 290 278 270 263 254 247 241 232 228 231 230 226 224 224 224 219 215 213 207 204 212 213 205 196 189 180 171 168 169 168 169 167 155 140 137 153 163 156 143 144 159 158 151 149 151 155 163 166 164 167 172 173 186 215 238 258 273 282 288 291 296
309 305 296 288 280 267 254 246 240 233 228 226 221 219 215 214 215 211 207 208 205 203 210 207 195 185 180 174 167 167 170 164 158 155 148 138 129 132 143 145 140 142 151 148 143 147 151 153 163 170 168 178 196 189 172 177 205 243 276 289 296 302 306
301 299 296 295 292 278 260 247 237 230 229 224 214 208 205 202 199 193 192 195 192 191 193 187 177 173 176 174 168 167 170 163 155 152 150 143 133 128 128 132 136 139 144 147 149 153 158 156 153 158 171 200 214 200 170 184 232 257 269 276 280 283 285
299 295 291 289 288 283 267 251 240 232 231 226 210 197 192 187 178 168 168 173 172 173 181 179 172 172 177 177 172 168 168 165 160 156 154 149 144 139 132 131 138 141 142 148 154 158 164 163 155 155 173 196 206 204 191 227 280 293 287 275 277 281 281
297 293 288 282 281 279 267 253 243 239 235 226 207 191 185 182 175 165 161 163 164 170 178 179 176 176 179 180 177 170 166 166 164 160 157 154 149 140 135 139 146 147 148 155 159 162 168 170 173 183 190 194 217 242 251 260 283 292 286 280 283 286 285
289 287 283 278 273 271 265 253 243 238 236 228 215 202 191 184 178 171 166 163 164 171 177 181 180 180 180 181 177 172 170 170 166 161 159 155 146 137 141 152 157 157 160 165 167 168 174 182 192 197 184 199 263 312 325 265 271 283 286 286 287 288 288
278 277 278 275 268 262 258 251 242 236 231 226 221 212 199 189 182 176 170 161 157 162 170 179 183 182 182 181 178 175 175 171 164 161 156 149 143 141 152 164 166 164 167 171 171 174 178 183 183 161 136 12 8 25 12 263 276 285 284 282 285 290 295
Height
823 825 826 827 829 830 830 832 832 833 834 834 834 835 835 835 835 835 835 835 835 835 834 834 835 835 836 836 837 837 837 837 838 838 838 840 840 841 842 843 843 843 844 843 842 842 845 849 853 855 856 857 857 857 858 858 859 859 859 859 859 859 860
824 825 827 828 829 829 830 831 832 833 834 835 835 835 835 835 835 835 835 835 835 835 835 835 835 835 836 836 837 837 838 838 838 838 838 839 839 840 842 843 843 843 843 844 844 843 843 847 851 854 857 859 858 858 859 859 860 861 861 861 861 861 861
824 826 827 828 829 829 830 831 832 833 834 835 835 835 836 836 836 836 836 836 836 836 836 836 836 836 836 837 837 837 838 838 838 838 838 839 840 840 841 842 842 842 843 844 844 844 843 845 849 852 855 857 857 859 860 861 861 861 862 862 862 862 862
824 826 827 828 829 829 829 830 831 832 833 834 835 835 836 836 836 836 836 836 836 837 837 837 837 837 837 837 837 837 838 839 839 839 839 840 840 841 841 841 842 842 842 843 844 844 844 845 847 850 852 854 856 859 861 862 862 862 862 863 863 863 863
823 825 826 828 828 829 829 830 831 832 833 834 835 836 836 836 836 836 837 836 837 837 838 838 838 838 838 838 838 838 839 839 839 840 841 841 842 842 842 842 842 843 843 843 844 845 845 846 848 849 850 852 855 858 861 862 862 863 863 863 864 864 864
822 824 825 827 828 829 829 830 830 831 833 834 835 836 836 837 837 837 837 837 837 838 838 839 839 839 839 839 839 839 840 840 840 841 842 842 843 843 844 844 844 844 844 844 845 845 846 847 848 849 849 852 855 857 860 861 862 863 864 864 865 865 865
822 824 824 826 827 828 829 830 830 831 832 833 835 836 836 837 837 837 837 838 838 839 839 840 840 841 841 841 841 841 841 842 842 842 843 843 844 844 845 845 845 845 845 846 846 846 847 848 849 849 850 852 855 856 858 859 861 862 864 865 866 866 866
822 824 825 826 827 828 829 830 830 831 832 833 835 836 837 837 837 838 838 839 839 840 840 841 841 842 842 842 843 843 843 844 844 844 844 845 845 846 846 846 846 846 847 847 847 847 848 849 849 851 851 853 855 856 856 858 860 862 864 866 866 866 866
822 824 825 826 827 827 828 829 830 831 832 833 834 836 837 837 837 838 839 839 840 841 841 842 842 843 843 844 844 844 845 845 845 846 846 846 847 847 847 847 847 848 848 849 849 849 850 850 851 853 853 853 854 855 857 858 860 863 864 865 865 866 866
821 823 824 825 826 827 828 829 830 832 833 833 834 835 837 837 838 838 839 840 840 841 842 842 843 843 844 845 845 846 846 847 847 847 847 848 848 848 849 849 849 850 850 851 851 851 852 853 853 854 854 853 852 853 855 857 859 862 864 864 865 866 867
821 822 824 825 827 828 828 829 831 832 833 834 834 836 837 837 838 839 840 840 841 842 842 843 844 844 845 846 846 847 847 848 848 848 849 849 850 850 851 851 851 852 852 853 853 853 854 854 854 854 854 854 853 852 852 855 859 862 864 865 865 866 866
820 822 823 824 826 827 828 829 831 832 833 834 835 836 837 838 838 839 840 841 842 842 843 844 845 845 846 847 847 848 849 849 850 850 851 851 851 852 852 853 853 854 854 855 855 855 855 855 855 855 855 855 855 855 854 854 858 862 864 865 866 866 866
820 821 822 823 825 826 828 829 831 832 833 834 835 836 837 838 838 839 840 842 842 843 844 844 845 846 847 848 848 849 849 850 850 851 852 852 853 853 854 854 855 855 856 856 856 856 856 857 856 856 857 857 857 857 857 856 858 863 865 866 866 867 866
819 820 821 823 824 826 828 829 830 831 832 834 834 836 837 838 839 839 840 842 843 843 844 845 846 847 847 848 849 849 850 850 851 851 852 853 853 854 855 855 856 856 856 857 857 857 857 858 858 858 858 858 859 859 859 858 860 863 865 866 866 866 866
819 820 821 822 824 826 828 829 830 831 832 833 834 835 836 837 838 839 840 841 842 843 844 845 846 847 848 848 849 849 850 850 851 851 852 853 854 855 855 856 856 857 857 857 857 858 858 858 858 858 859 859 860 860 860 859 860 862 864 865 866 866 866
818 820 820 822 823 825 827 828 829 830 832 833 834 835 836 836 838 839 839 841 842 843 844 845 846 846 847 848 849 849 850 851 851 852 852 853 854 855 856 856 857 857 857 858 858 858 858 859 858 859 860 860 860 861 861 861 860 861 863 864 865 865 866
817 819 820 821 823 824 826 827 828 829 831 832 833 834 835 836 837 838 838 840 841 842 843 844 845 846 847 848 848 849 850 851 851 852 852 853 854 854 855 856 857 858 858 858 858 858 859 859 859 859 860 861 861 861 862 861 861 861 862 863 864 864 865
817 818 819 821 822 823 825 826 827 828 829 831 832 833 834 835 836 837 837 839 840 841 842 843 845 846 847 847 848 849 850 850 851 852 852 853 853 854 855 856 857 857 858 858 859 859 859 859 859 860 860 860 861 862 862 862 862 862 861 862 863 864 864
816 817 818 820 821 823 824 825 826 827 828 829 831 832 833 834 835 836 837 837 839 840 841 842 843 845 846 847 848 848 849 850 851 851 852 853 853 854 854 855 856 857 857 858 859 859 859 859 860 860 860 860 861 862 862 862 862 862 862 862 863 863 863
815 816 817 818 820 821 822 824 825 826 827 828 829 830 832 833 834 835 835 836 837 838 839 841 842 843 845 846 847 848 848 849 850 851 851 852 852 853 853 854 855 855 856 857 858 859 859 860 860 860 860 861 861 861 862 862 862 862 862 862 862 862 862
814 816 817 818 819 820 821 823 824 825 826 827 828 829 830 831 832 833 834 835 836 837 838 839 840 842 843 844 846 846 847 848 849 850 850 850 851 851 852 853 853 854 855 855 856 857 859 860 860 860 860 861 861 861 861 861 861 861 861 861 861 861 861
814 816 816 817 819 819 821 822 823 824 825 825 827 827 828 829 830 831 832 833 834 835 837 838 838 839 841 842 844 845 846 847 847 848 848 849 849 849 850 851 852 852 853 853 854 856 857 858 859 859 860 860 861 861 861 861 860 860 860 859 859 859 860
815 815 816 817 818 818 819 820 821 822 823 824 825 826 827 828 828 829 830 831 832 833 834 835 836 836 838 839 841 842 844 845 846 846 847 847 847 847 848 849 849 850 851 851 852 853 855 856 857 858 859 859 860 861 860 860 859 859 859 858 858 859 859
815 815 816 817 817 818 819 819 820 821 821 822 823 824 825 826 827 828 829 829 830 830 832 833 834 835 835 836 838 840 841 843 843 844 845 845 845 845 845 846 847 848 848 849 850 851 852 853 855 856 857 858 859 859 860 860 859 859 859 859 859 860 859
815 815 816 816 817 817 818 818 819 820 820 821 822 823 823 824 825 827 827 828 828 828 829 831 832 834 834 834 835 837 838 840 841 842 843 843 843 843 844 844 844 846 846 847 848 849 850 851 852 854 855 856 857 858 859 859 859 859 860 859 859 860 859
814 815 815 815 815 816 816 817 817 818 819 820 820 821 821 822 823 824 825 826 826 827 827 828 830 832 832 832 833 834 836 837 838 839 840 841 841 842 842 842 842 844 845 845 846 848 848 849 850 852 853 855 856 857 857 858 858 859 860 860 860 860 860
814 814 814 814 815 815 815 815 816 816 817 818 818 819 819 820 820 821 822 823 824 825 825 826 828 830 830 830 830 832 834 834 835 837 839 840 840 840 840 840 841 842 843 844 845 846 847 847 848 850 852 854 855 856 857 857 858 859 859 860 860 860 860
813 813 813 814 814 814 814 814 814 815 815 816 816 817 817 817 818 819 820 821 821 822 823 823 825 827 828 829 829 830 831 831 834 837 839 838 838 838 838 839 839 841 842 843 844 844 845 846 847 850 852 853 855 856 856 857 857 858 858 859 859 859 859
813 813 813 813 813 813 813 812 813 813 813 814 814 814 815 815 816 816 817 818 819 820 821 821 822 824 825 826 827 828 829 830 832 837 838 837 837 837 837 838 839 840 841 841 842 843 844 845 847 849 851 853 854 854 855 855 856 856 857 857 857 858 857
813 813 813 812 812 812 811 811 811 811 811 811 811 812 813 813 814 814 815 816 817 818 819 819 820 821 823 824 825 826 828 829 832 835 836 836 836 836 836 837 838 839 839 840 841 842 843 845 847 849 850 852 853 853 854 854 854 855 855 855 855 856 855
813 812 812 812 811 811 811 810 810 810 810 809 810 810 811 811 812 813 813 814 815 816 817 817 818 820 822 823 825 825 827 829 831 833 834 834 835 835 835 836 837 838 839 839 840 842 843 845 847 848 850 851 852 853 853 853 854 854 854 854 854 853 853
813 812 812 811 811 810 810 809 809 809 809 808 808 809 809 810 811 811 811 812 813 814 814 815 817 819 821 822 824 824 826 827 829 831 832 833 835 835 835 836 837 838 839 840 841 842 843 845 847 848 849 850 851 852 853 853 853 853 853 853 852 852 851
813 812 811 811 810 809 809 808 808 808 808 807 806 807 808 809 809 810 811 811 812 813 813 814 815 818 820 821 823 824 825 826 828 829 831 833 834 835 836 837 838 839 839 840 841 843 844 845 847 848 849 849 850 851 852 852 852 852 852 852 852 851 850
812 811 810 810 809 808 808 807 807 807 807 806 805 805 806 807 809 809 810 811 812 812 813 814 815 817 819 820 822 823 824 826 827 829 830 832 833 835 836 837 838 838 840 841 842 843 845 845 846 847 848 848 849 850 851 851 851 850 851 851 850 850 849
811 810 809 809 808 807 806 806 806 806 805 805 804 804 804 806 808 808 809 810 810 811 812 814 815 816 818 819 821 822 824 825 826 828 829 831 832 834 835 836 837 838 840 841 843 844 845 845 846 846 847 848 848 849 850 850 850 850 850 850 849 849 848
809 809 808 807 806 805 805 804 804 804 804 804 804 803 803 804 806 807 808 809 810 810 812 813 814 816 817 818 820 821 823 824 826 828 829 830 831 833 834 835 837 838 840 841 842 843 844 845 845 846 846 847 848 848 849 849 849 849 849 849 848 847 846
807 806 805 805 804 803 803 802 802 802 803 802 802 802 802 803 803 805 806 808 809 810 811 812 814 815 816 818 819 821 822 824 826 827 828 829 831 832 833 834 836 838 840 841 842 843 843 844 845 845 846 846 846 847 848 849 849 848 848 848 847 846 845